GEFSSGP_con_cape1000_000.txt.gz
Probability
100 97 74 0 0 0 0 0 0 0 0 0 0 0 0 0 0 0 0 23 35 71 100 100 100 100 100 100 100 100 100 100 100 100 100 100 81 81 100 100 100 100 100 100 100 100 100 100 100
100 84 0 0 0 0 0 0 0 0 0 0 0 0 0 0 0 0 6 45 61 100 100 100 100 100 100 100 100 100 100 100 100 100 100 90 65 81 100 100 100 100 100 100 100 100 100 100 100
87 0 0 0 0 0 0 0 0 0 0 0 0 0 0 0 0 0 6 42 90 100 100 100 100 100 100 100 100 100 100 100 100 100 100 100 100 100 100 100 100 100 100 100 100 100 100 100 100
13 0 0 0 0 0 0 0 0 0 0 0 0 0 0 0 0 0 13 45 90 100 100 100 100 100 100 100 100 100 100 100 100 100 100 100 100 100 81 100 100 100 100 100 100 97 100 100 100
0 0 0 0 0 0 0 0 0 0 0 0 0 0 0 0 3 10 13 45 94 100 100 100 100 100 100 100 100 100 100 100 100 100 100 100 100 81 81 100 100 100 97 100 100 100 97 100 100
0 0 0 0 0 0 0 0 0 0 0 0 0 0 0 0 6 26 16 58 90 100 100 100 100 100 100 100 100 100 100 100 100 100 100 100 100 97 61 100 100 100 100 100 100 97 74 87 97
0 0 0 0 0 0 0 0 0 0 0 0 0 0 0 0 6 26 39 61 81 97 100 100 100 100 100 100 100 100 100 100 100 100 100 100 100 100 74 71 100 100 100 100 97 97 71 19 26
0 0 0 0 0 0 0 0 0 0 0 0 0 0 0 0 6 6 6 6 29 77 100 100 100 100 100 100 100 100 100 100 100 100 100 100 100 100 68 16 77 100 100 100 97 84 16 3 10
0 0 0 0 0 0 0 0 0 0 0 0 0 0 0 0 0 6 6 3 16 71 100 100 100 100 100 100 100 100 100 100 100 100 100 100 100 100 23 6 84 100 100 100 94 13 0 0 19
0 0 0 0 0 0 0 0 0 0 0 0 0 0 0 0 3 6 0 0 3 26 87 77 61 48 100 100 100 100 100 100 100 100 100 74 77 74 3 10 81 100 100 100 68 13 0 0 0
0 0 0 0 0 0 0 0 0 0 0 0 0 0 0 6 0 0 0 0 0 3 42 23 6 10 42 94 90 55 61 81 68 29 26 32 61 65 6 0 13 68 90 42 13 0 0 0 0
0 0 0 0 0 0 0 0 0 0 0 0 0 0 0 6 6 0 0 0 0 3 6 10 3 6 6 16 39 3 0 10 29 23 10 3 0 3 0 0 0 16 39 23 6 0 0 0 0
0 0 0 0 0 0 0 0 0 0 0 0 0 0 0 0 6 6 0 0 0 0 3 3 3 3 3 3 0 0 0 3 0 3 3 0 0 0 0 0 0 0 0 0 0 0 0 0 0
0 0 0 0 0 0 0 0 0 0 0 0 0 0 0 0 0 0 0 0 0 0 3 3 0 0 0 0 0 0 0 0 0 0 3 0 0 0 0 0 0 0 0 0 0 0 0 0 0
0 0 0 0 0 0 0 0 0 0 0 0 0 0 0 0 0 0 0 0 0 0 0 0 0 0 0 0 0 0 0 0 0 0 0 0 0 0 0 0 0 0 0 0 0 0 0 0 0
0 0 0 0 0 0 0 0 0 0 0 0 0 0 0 0 0 0 0 0 0 0 0 0 0 0 0 0 0 0 0 0 0 0 0 0 0 0 0 0 0 0 0 0 0 0 0 0 0
0 0 0 0 0 0 0 0 0 0 0 0 0 0 0 0 0 0 0 0 0 0 0 0 0 0 0 0 0 0 0 0 0 0 0 0 0 0 0 0 0 0 0 0 0 0 0 0 0
0 0 0 0 0 0 0 0 0 0 0 0 0 0 0 0 0 0 0 0 0 0 0 0 3 0 0 0 0 0 0 0 0 0 0 0 0 0 0 0 0 0 0 0 0 0 0 0 0
0 0 0 0 0 0 0 0 0 0 0 0 0 0 0 0 0 0 0 0 0 0 0 0 3 0 0 0 0 0 0 0 0 0 0 0 0 0 0 0 0 0 0 0 0 0 0 0 0
0 0 0 0 0 0 0 0 0 0 0 0 0 0 0 0 0 0 0 0 0 0 0 0 0 3 3 10 3 0 0 0 0 0 0 0 0 0 0 0 0 0 0 0 0 0 0 0 0
0 0 0 0 0 0 0 0 0 0 0 0 0 0 0 0 0 0 0 0 0 0 0 0 0 3 3 3 0 0 0 0 0 0 0 0 0 0 0 0 0 0 0 0 0 0 0 0 0
0 0 0 0 0 0 0 0 0 0 0 0 0 0 0 0 0 0 10 0 0 3 3 3 3 0 0 0 0 0 0 0 0 0 0 0 0 0 0 0 0 0 0 0 0 0 0 0 0
0 0 0 0 0 0 0 0 0 0 0 0 0 0 0 0 0 0 26 32 29 19 6 3 0 0 0 0 0 0 0 0 0 0 0 0 0 0 0 0 0 0 0 0 0 0 0 0 0
0 0 0 0 0 0 0 0 0 0 0 0 0 0 0 0 0 0 16 16 0 0 0 0 0 0 0 0 0 0 0 0 0 0 0 0 0 0 0 0 0 0 0 0 0 0 0 0 0
0 0 0 0 0 0 0 0 0 0 0 0 0 0 0 0 0 0 0 6 0 0 0 0 0 0 0 0 0 0 0 0 0 0 0 0 0 0 0 0 0 0 0 0 0 0 0 0 0
0 0 0 0 0 0 0 0 0 0 0 0 0 0 0 0 0 0 0 0 0 0 0 0 0 0 0 0 0 0 0 0 0 0 0 0 0 0 0 0 0 0 0 0 0 0 0 0 0
0 0 0 0 0 0 0 0 0 0 0 0 0 0 0 0 0 0 0 0 0 0 0 0 0 0 0 0 0 0 0 0 0 0 0 0 0 0 0 0 0 0 0 0 0 0 0 0 0
0 0 0 0 0 0 0 0 0 0 0 0 0 0 0 0 0 0 0 0 0 0 0 0 0 0 0 0 0 0 0 0 0 0 0 0 0 0 0 0 0 0 0 0 0 0 0 0 0
0 0 0 0 0 0 0 0 0 0 0 0 0 0 0 0 0 0 0 0 0 0 0 0 0 0 0 0 0 0 0 0 0 0 0 0 0 0 0 0 0 0 0 0 0 0 0 0 0
0 0 0 0 0 0 0 0 0 0 0 0 0 0 0 0 0 0 0 0 0 0 0 0 0 0 0 0 0 0 0 0 0 0 0 0 0 0 0 0 0 0 0 0 0 0 0 0 0

GEFSSGP_con_cape1000_006.txt.gz
Probability
100 100 100 100 0 0 0 0 0 0 0 0 0 0 0 0 0 0 48 0 0 52 100 100 100 100 100 100 100 100 100 100 100 100 100 100 100 84 71 87 87 94 97 100 100 100 100 100 100
100 94 39 0 0 0 0 0 0 0 0 0 0 0 0 0 0 0 16 10 0 42 100 100 100 100 100 100 100 100 100 100 100 100 100 100 94 100 100 100 94 94 97 97 97 100 100 100 100
90 52 0 0 0 0 0 0 0 0 0 0 0 0 0 0 0 0 35 55 3 35 84 100 100 100 100 100 100 100 100 100 100 100 100 87 84 97 97 97 90 90 94 97 100 100 97 94 97
84 0 0 0 0 0 0 0 0 0 0 0 0 0 0 0 0 0 65 61 10 32 42 97 100 100 100 100 100 100 100 100 100 100 100 100 100 90 84 97 90 84 81 97 100 100 100 100 97
3 0 0 0 0 0 0 0 0 0 0 0 0 0 0 0 0 10 29 29 29 10 39 94 100 100 100 100 100 100 100 100 100 100 100 100 100 71 87 100 100 94 87 81 97 97 100 100 100
32 0 0 0 0 0 0 0 0 0 0 0 0 0 3 6 3 19 13 26 13 3 32 100 100 100 100 100 100 100 100 100 100 100 100 100 100 68 100 97 97 90 94 77 61 61 45 52 87
29 0 0 0 0 0 0 0 0 0 0 0 0 0 0 6 3 23 13 3 0 3 23 90 100 100 100 100 100 100 100 100 100 100 100 100 100 77 74 97 97 97 94 61 32 0 3 23 52
0 0 0 0 0 0 0 0 0 0 0 0 0 0 0 3 13 16 10 0 0 0 6 48 87 90 100 94 100 100 100 100 100 100 100 100 100 77 32 55 52 65 77 35 3 0 3 29 39
0 0 0 0 0 0 0 0 0 0 0 0 0 0 0 0 10 23 19 0 0 0 0 10 45 94 100 94 68 100 100 100 100 100 100 100 100 58 3 0 42 45 55 10 0 0 0 0 29
0 0 0 0 0 0 0 0 0 0 0 0 0 0 0 32 35 35 10 0 0 0 0 13 65 100 100 100 100 100 71 97 100 100 100 100 65 29 0 6 68 77 29 3 0 0 0 0 0
0 0 0 0 0 0 0 0 0 0 0 0 0 0 6 23 39 32 13 6 0 0 3 19 74 77 97 100 100 100 100 100 100 100 100 97 61 42 0 0 52 65 10 0 0 0 0 0 0
0 0 0 0 0 0 0 0 0 0 0 0 0 0 3 19 29 13 3 3 0 0 10 39 45 48 65 100 100 100 100 100 100 100 65 65 58 19 0 0 0 13 3 0 0 0 0 0 0
0 0 0 0 0 0 0 0 0 0 0 0 0 0 0 10 13 3 0 3 0 3 23 39 48 32 32 84 100 100 100 87 100 100 77 19 10 0 0 0 0 0 0 0 0 0 0 0 0
0 0 0 0 0 0 0 0 0 0 0 0 0 0 0 0 0 0 0 0 0 0 16 39 55 39 19 68 100 94 97 100 84 65 35 0 0 3 0 0 0 0 0 0 0 0 0 0 0
0 0 0 0 0 0 0 0 0 0 0 0 0 0 0 0 0 0 0 0 3 0 3 32 71 65 29 13 42 65 100 90 81 65 16 0 0 3 10 0 0 0 0 0 0 0 0 0 0
0 0 0 0 0 0 0 0 0 0 0 0 0 0 0 0 0 0 0 0 3 0 0 23 94 77 71 65 71 68 84 97 87 94 52 0 0 3 23 23 0 0 0 0 0 0 0 0 0
0 0 0 0 0 0 0 0 0 0 0 0 0 0 0 0 0 0 0 0 3 6 19 29 94 97 97 100 100 90 87 100 100 87 74 3 0 0 39 55 3 0 0 0 0 0 0 0 0
0 0 0 0 0 0 0 0 0 0 0 0 0 0 0 0 0 0 0 0 0 6 26 55 90 100 100 100 100 100 100 100 100 100 90 13 19 23 55 84 10 0 0 0 0 0 0 0 0
0 0 0 0 0 0 0 0 0 0 0 0 0 0 0 0 0 0 0 0 0 0 3 29 65 90 100 100 100 100 100 100 100 100 97 74 77 84 90 87 61 35 23 3 0 6 0 0 0
0 0 0 0 0 0 0 0 0 0 0 0 0 0 0 0 0 0 0 0 3 3 3 3 19 71 100 100 100 100 100 100 100 100 100 94 90 84 39 65 77 23 45 3 0 19 48 6 0
0 0 0 0 0 0 0 0 0 0 0 0 0 0 0 0 0 0 0 10 39 42 26 3 3 52 97 100 100 100 100 100 100 100 100 97 90 74 71 32 39 16 35 84 26 13 32 32 0
0 0 0 0 0 0 0 0 0 0 0 0 0 0 0 0 0 0 0 13 32 58 61 19 26 58 94 97 100 100 90 94 84 81 100 97 87 71 90 58 61 10 10 0 0 0 0 3 0
0 0 0 0 0 0 0 0 0 0 0 0 0 0 0 0 0 0 0 3 6 29 77 84 84 74 74 84 74 61 35 23 35 61 74 87 90 97 100 61 39 6 0 0 0 0 0 0 0
0 0 0 0 0 0 0 0 0 0 0 0 0 0 0 0 0 0 0 0 3 13 55 74 84 52 32 39 39 23 13 10 6 16 32 68 87 81 48 42 19 0 0 0 0 0 0 0 0
0 0 0 0 0 0 0 0 0 0 0 0 0 0 0 0 0 0 0 0 0 0 10 39 39 23 3 16 10 10 3 3 0 3 13 42 65 74 52 29 16 3 0 0 0 0 0 0 0
0 0 0 0 0 0 0 0 0 0 0 0 0 0 0 0 0 0 0 0 0 0 3 10 10 0 0 0 0 0 0 0 0 0 3 23 42 68 32 26 6 0 0 0 0 0 0 0 0
0 0 0 0 0 0 0 0 0 0 0 0 0 0 0 0 0 0 0 0 0 0 0 0 0 0 0 0 0 0 0 0 0 0 3 6 13 13 3 13 0 0 0 0 0 0 0 0 0
0 0 0 0 0 0 0 0 0 0 0 0 0 0 0 0 0 0 0 0 0 0 0 0 0 0 0 0 0 0 0 0 0 0 0 3 0 0 0 0 0 0 0 0 0 0 0 0 0
0 0 0 0 0 0 0 0 0 0 0 0 0 0 0 0 0 0 0 0 0 0 0 0 0 0 0 0 0 0 0 0 0 3 0 0 0 3 3 0 0 0 0 0 0 0 0 0 0
0 0 0 0 0 0 0 0 0 0 0 0 0 0 0 0 0 0 0 0 0 0 0 0 0 0 0 0 0 0 0 0 0 0 0 0 0 0 0 0 0 0 0 0 0 0 0 0 0

GEFSSGP_con_cape1000_012.txt.gz
Probability
100 100 100 100 100 74 0 0 0 0 0 0 0 0 0 0 0 84 77 19 84 97 97 100 100 100 100 100 100 100 100 100 100 100 94 94 77 77 87 90 94 100 100 100 100 100 100 100 100
100 100 100 100 100 0 0 0 0 0 0 0 0 0 0 0 0 0 3 35 87 97 94 100 100 100 100 100 100 100 100 100 100 97 94 90 74 87 97 90 97 97 97 97 100 100 97 97 100
100 94 100 100 3 0 0 0 0 0 0 0 0 0 0 0 0 0 0 3 90 94 87 100 100 100 100 100 100 100 100 100 100 100 90 87 84 94 87 90 94 94 97 100 100 100 100 97 100
100 100 100 32 0 0 0 0 0 0 0 0 0 0 0 0 0 3 0 3 84 97 97 100 100 100 100 100 100 100 100 100 100 97 77 81 90 81 87 84 84 100 100 100 100 100 100 97 97
100 100 100 0 0 0 0 0 0 0 0 0 0 0 0 3 3 0 0 3 52 97 97 100 100 100 100 100 100 100 100 100 100 100 87 90 81 68 84 97 84 81 68 81 90 97 94 100 100
100 100 19 0 0 0 0 0 0 0 0 0 0 0 0 0 3 0 0 0 16 94 100 100 100 100 100 100 100 100 100 100 100 100 100 100 81 68 84 90 90 77 45 42 42 48 65 90 100
100 100 19 0 0 0 0 0 0 0 0 0 0 0 0 0 3 3 0 0 3 42 100 100 100 100 100 100 100 100 100 100 100 100 100 100 84 87 90 90 90 74 32 0 0 0 23 45 87
100 100 3 0 0 0 0 0 0 0 0 0 0 0 6 0 0 0 0 3 0 10 87 97 87 90 97 100 100 100 100 100 100 100 100 100 94 81 90 94 94 61 6 0 0 0 0 6 29
42 87 3 0 10 0 0 0 0 0 0 0 0 0 10 0 0 0 0 0 0 0 42 100 90 90 84 58 100 100 100 100 100 100 100 100 65 45 84 87 84 74 6 0 0 0 0 0 10
29 68 0 3 0 0 0 0 0 0 0 0 0 0 3 0 0 0 0 0 0 0 0 35 77 97 97 81 68 61 84 100 94 97 100 100 81 6 3 55 74 74 32 3 0 0 0 0 0
0 10 10 0 0 0 0 0 0 0 0 0 0 0 6 3 3 3 0 0 0 0 0 6 42 90 100 100 87 77 61 65 52 97 100 84 61 0 0 0 39 45 23 0 0 0 0 0 0
0 3 3 0 0 0 0 0 0 0 0 0 0 0 3 6 6 0 0 0 0 0 0 10 13 77 97 97 94 97 87 84 81 94 87 81 87 16 0 0 0 23 0 0 0 0 0 0 0
3 3 0 0 0 0 0 0 0 0 0 0 0 0 0 0 6 3 0 0 0 0 0 0 6 45 94 100 100 74 87 58 71 90 71 77 68 32 3 0 3 16 0 0 0 0 0 0 0
0 0 0 0 0 0 0 0 0 0 0 0 0 0 0 0 0 3 0 0 0 0 0 0 0 16 61 100 100 77 77 94 39 35 35 45 19 16 3 0 0 0 0 0 0 0 0 0 0
0 0 0 0 0 0 0 0 0 0 0 0 0 0 0 0 0 0 0 0 0 0 0 0 10 10 13 29 48 45 90 71 55 13 6 6 0 0 0 0 0 0 0 0 0 0 0 0 0
0 0 0 0 0 0 0 0 0 0 0 0 0 0 0 0 0 0 0 0 0 0 0 0 10 10 6 6 23 35 58 74 65 32 10 0 0 0 0 0 0 0 0 0 0 0 0 0 0
0 0 0 0 0 0 0 0 0 0 0 0 0 0 0 0 0 0 0 0 3 0 0 0 6 16 16 10 16 35 39 90 68 42 16 0 0 0 0 10 3 0 0 0 0 0 0 0 0
0 0 0 0 0 0 0 0 0 0 0 0 0 0 0 0 0 0 0 0 0 0 6 0 6 32 23 45 23 42 45 77 74 68 65 6 3 0 32 35 3 3 0 0 0 0 0 0 0
0 0 0 0 0 0 0 0 0 0 0 0 0 0 0 0 0 0 0 0 0 3 3 13 6 16 52 94 90 87 94 97 90 90 77 58 29 23 58 39 23 19 0 0 0 3 0 0 0
0 0 0 0 0 0 0 0 0 0 0 0 0 0 0 0 0 0 0 3 3 13 16 23 13 13 45 94 100 100 94 97 97 97 100 77 26 23 42 26 23 13 0 0 0 0 0 0 0
0 0 0 0 0 0 0 0 0 0 0 0 0 0 0 0 0 0 0 3 6 13 13 32 55 52 55 74 100 100 100 100 97 94 90 81 48 29 29 10 10 6 3 0 0 0 0 0 0
0 0 0 0 0 0 0 0 0 0 0 0 0 0 0 0 0 0 0 0 3 3 6 19 55 77 74 71 90 97 94 77 81 71 74 71 48 32 23 23 6 0 0 0 0 0 13 0 0
0 0 0 0 0 0 0 0 0 0 0 0 0 0 0 0 0 0 0 0 3 3 3 13 39 65 77 94 90 94 71 58 55 45 35 23 19 19 23 23 3 0 0 0 0 0 0 0 0
0 0 0 0 0 0 0 0 0 0 0 0 0 0 0 0 0 0 0 0 0 0 0 3 13 26 42 74 77 71 39 23 16 16 13 10 6 10 6 10 0 0 0 0 0 0 0 0 0
0 0 0 0 0 0 0 0 0 0 0 0 0 0 0 0 0 0 0 0 0 0 0 0 3 3 3 32 48 29 23 16 13 10 0 0 0 0 0 0 0 0 0 0 0 0 0 0 0
0 0 0 0 0 0 0 0 0 0 0 0 0 0 0 0 0 0 0 0 0 0 0 0 0 0 0 0 3 6 6 3 3 0 0 0 0 0 0 0 0 0 0 0 0 0 0 0 0
0 0 0 0 0 0 0 0 0 0 0 0 0 0 0 0 0 0 0 0 0 0 0 0 0 0 0 0 0 0 0 0 0 0 0 0 0 0 0 0 0 0 0 0 0 0 0 0 0
0 0 0 0 0 0 0 0 0 0 0 0 0 0 0 0 0 0 0 0 0 0 0 0 0 0 0 0 0 0 0 0 0 0 0 0 0 0 0 0 0 0 0 0 0 0 0 0 0
0 0 0 0 0 0 0 0 0 0 0 0 0 0 0 0 0 0 0 0 0 0 0 0 0 0 0 0 0 0 0 0 0 0 0 0 0 0 0 0 0 0 0 0 0 0 0 0 0
0 0 0 0 0 0 0 0 0 0 0 0 0 0 0 0 0 0 0 0 0 0 0 0 0 0 0 0 0 0 0 0 0 0 0 0 0 0 0 0 0 0 0 0 0 0 0 0 0

GEFSSGP_con_cape1000_018.txt.gz
Probability
100 100 100 100 3 0 0 0 0 0 0 0 0 0 0 0 0 0 0 42 13 55 97 100 100 100 100 100 100 100 100 100 100 100 97 97 97 97 97 100 100 100 100 100 100 100 100 100 100
97 100 94 35 0 0 0 0 0 0 0 0 0 0 0 0 0 0 42 45 29 71 97 97 100 100 100 100 100 100 100 100 100 100 100 97 97 97 94 100 100 97 97 100 97 100 100 97 97
100 100 39 10 0 0 0 0 0 0 0 0 0 0 0 0 0 0 48 55 52 81 100 100 100 100 100 100 100 100 100 100 100 100 97 94 100 97 100 94 97 97 97 90 94 97 97 100 97
100 61 6 0 0 0 0 0 0 0 0 0 0 0 0 0 0 16 71 61 58 84 97 100 100 100 100 100 100 100 100 100 100 100 97 100 100 100 94 97 94 94 87 84 87 94 94 97 100
48 10 0 0 0 0 0 0 0 0 0 0 0 0 0 0 10 77 68 55 45 77 97 100 100 100 100 100 100 100 100 100 100 97 97 97 94 97 97 94 84 87 81 77 77 81 84 87 100
0 0 0 0 0 0 0 0 0 0 0 0 0 0 0 0 29 77 71 29 32 71 97 100 100 100 100 100 100 100 100 100 100 97 97 100 100 90 94 94 68 52 48 55 48 65 74 90 97
0 3 0 0 0 0 0 0 0 0 0 0 0 0 0 0 0 42 74 52 55 77 94 97 100 100 100 100 100 100 100 100 100 100 97 100 100 94 97 100 74 35 23 16 16 23 35 74 84
0 0 0 0 0 0 0 0 0 0 0 0 0 0 0 0 0 23 71 74 81 87 90 100 100 100 100 100 100 100 100 100 100 100 100 100 100 100 100 100 81 32 3 0 0 0 13 26 52
0 0 0 0 0 0 0 0 0 0 0 0 0 0 0 0 3 13 65 81 94 97 94 100 100 100 100 100 100 100 100 100 100 100 100 100 87 84 100 100 94 55 16 0 0 0 0 3 10
0 0 0 0 0 0 0 0 0 0 0 0 0 0 0 0 3 6 39 68 90 90 87 84 90 77 84 94 100 100 100 100 100 100 100 94 10 16 74 97 100 81 55 23 10 3 0 0 0
0 0 0 0 0 0 0 0 0 0 0 0 0 0 0 0 0 3 6 35 81 87 94 77 61 55 42 45 39 74 71 94 97 97 97 58 0 0 16 13 87 71 65 6 0 0 0 0 0
0 0 0 0 0 0 0 0 0 0 0 0 0 0 0 0 0 0 0 0 26 68 77 90 68 42 23 16 10 19 13 35 65 71 81 48 3 0 0 0 6 6 3 0 0 0 0 0 0
0 0 0 0 0 0 0 0 0 0 0 0 0 0 0 0 0 0 0 0 0 35 65 87 84 61 29 13 3 3 0 6 19 13 35 19 0 0 0 0 0 0 0 0 0 0 0 0 0
0 0 0 0 0 0 0 0 0 0 0 0 0 0 0 0 0 0 0 0 0 0 13 55 65 74 52 16 3 0 0 0 0 6 13 13 0 0 0 0 0 0 0 0 0 0 0 0 0
0 0 0 0 0 0 0 0 0 0 0 0 0 0 0 0 0 0 0 0 0 0 0 0 26 39 52 13 3 3 0 0 0 0 0 0 0 0 0 0 0 0 0 0 0 0 0 0 0
0 0 0 0 0 0 0 0 0 0 0 0 0 0 0 0 0 0 0 0 0 0 0 0 0 16 35 29 10 6 0 0 0 0 0 0 0 0 0 0 0 0 0 0 0 0 0 0 0
0 0 0 0 0 0 0 0 0 0 0 0 0 0 0 0 0 0 0 0 0 0 0 0 0 0 6 19 23 13 10 3 3 0 0 0 0 0 0 0 0 0 0 0 0 0 0 0 0
0 0 0 0 0 0 0 0 0 0 0 0 0 0 0 0 0 0 0 0 0 0 0 0 0 0 0 3 6 6 3 6 6 3 0 0 0 0 0 0 0 0 0 0 0 0 0 0 0
0 0 0 0 0 0 0 0 0 0 0 0 0 0 0 0 0 0 0 0 0 0 0 0 0 0 0 0 6 10 13 10 3 3 3 0 0 0 0 0 0 0 0 0 0 0 0 0 0
0 0 0 0 0 0 0 0 0 0 0 0 0 0 0 0 0 0 0 0 0 0 0 0 0 0 0 0 0 3 3 10 10 6 3 0 0 0 0 0 0 0 0 0 0 0 0 0 0
0 0 0 0 0 0 0 0 0 0 0 0 0 0 0 0 0 0 0 0 0 0 0 0 0 0 0 0 0 3 0 3 0 0 6 3 0 0 0 0 0 0 0 0 0 0 0 0 0
0 0 0 0 0 0 0 0 0 0 0 0 0 0 0 0 0 0 0 0 0 0 0 0 0 0 0 0 0 0 0 0 0 3 6 3 0 0 0 0 0 0 0 0 0 0 0 0 0
0 0 0 0 0 0 0 0 0 0 0 0 0 0 0 0 0 0 0 0 0 0 0 0 0 0 0 0 0 0 0 0 0 0 0 0 0 0 0 0 0 0 0 0 0 0 0 0 0
0 0 0 0 0 0 0 0 0 0 0 0 0 0 0 0 0 0 0 0 0 0 0 0 0 0 0 0 0 0 0 0 0 0 0 0 0 0 0 0 0 0 0 0 0 0 0 0 0
0 0 0 0 0 0 0 0 0 0 0 0 0 0 0 0 0 0 0 0 0 0 0 0 0 0 0 0 0 0 0 0 0 0 0 0 0 0 0 0 0 0 0 0 0 0 0 0 0
0 0 0 0 0 0 0 0 0 0 0 0 0 0 0 0 0 0 0 0 0 0 0 0 0 0 0 0 0 0 0 0 0 0 0 0 0 0 0 0 0 0 0 0 0 0 0 0 0
0 0 0 0 0 0 0 0 0 0 0 0 0 0 0 0 0 0 0 0 0 0 0 0 0 0 0 0 0 0 0 0 0 0 0 0 0 0 0 0 0 0 0 0 0 0 0 0 0
0 0 0 0 0 0 0 0 0 0 0 0 0 0 0 0 0 0 0 0 0 0 0 0 0 0 0 0 0 0 0 0 0 0 0 0 0 0 0 0 0 0 0 0 0 0 0 0 0
0 0 0 0 0 0 0 0 0 0 0 0 0 0 0 0 0 0 0 0 0 0 0 0 0 0 0 0 0 0 0 0 0 0 0 0 0 0 0 0 0 0 0 0 0 0 0 0 0
0 0 0 0 0 0 0 0 0 0 0 0 0 0 0 0 0 0 0 0 0 0 0 0 0 0 0 0 0 0 0 0 0 0 0 0 0 0 0 0 0 0 0 0 0 0 0 0 0

GEFSSGP_con_cape1000_024.txt.gz
Probability
100 100 94 19 0 0 0 0 0 0 0 0 0 0 0 0 0 0 0 0 0 19 84 100 100 100 100 100 100 100 100 100 97 97 97 97 97 97 97 97 100 100 100 97 100 100 100 100 100
97 100 39 0 0 0 0 0 0 0 0 0 0 0 0 0 0 0 0 0 6 61 94 100 100 100 100 100 100 100 100 97 97 97 97 97 94 94 94 97 100 100 97 97 97 100 100 100 100
100 81 0 0 0 0 0 0 0 0 0 0 0 0 0 0 10 3 0 0 26 81 97 100 100 100 100 100 100 100 100 97 87 84 84 84 90 90 87 87 94 87 84 90 94 97 97 94 94
77 3 0 0 0 0 0 0 0 0 0 0 0 0 0 0 16 16 3 3 35 90 94 100 100 100 100 100 100 100 100 94 84 58 84 77 68 77 74 74 77 74 71 74 87 90 97 97 97
3 0 0 0 0 0 0 0 0 0 0 0 0 0 0 13 29 26 0 3 42 87 97 100 100 100 100 100 100 100 100 100 87 74 84 87 81 74 65 61 71 68 61 45 74 87 90 94 100
0 0 0 0 0 0 0 0 0 0 0 0 0 0 0 45 52 29 10 13 42 90 97 100 100 100 100 100 100 100 100 97 94 87 87 84 84 77 68 45 45 52 39 32 39 61 74 94 97
0 0 0 0 0 0 0 0 0 0 0 0 0 0 0 55 45 39 19 6 32 84 97 100 100 100 100 100 100 100 100 100 100 97 94 90 84 90 77 65 35 32 23 16 13 32 35 65 74
0 0 0 0 0 0 0 0 0 0 0 0 0 0 0 29 52 32 16 10 35 68 90 94 100 100 100 100 100 100 100 100 100 100 97 97 94 90 94 87 65 19 13 6 0 0 0 19 52
0 0 0 0 0 0 0 0 0 0 0 0 0 0 0 16 65 45 26 19 45 55 61 81 94 97 97 100 100 100 100 100 100 100 100 100 90 74 90 100 84 45 10 0 0 0 0 0 3
0 0 0 0 0 0 0 0 0 0 0 0 0 0 0 45 68 61 55 42 52 58 58 58 87 90 97 100 100 100 100 100 100 100 100 97 58 16 81 77 94 55 32 16 3 3 0 0 0
0 0 0 0 0 0 0 0 0 0 0 0 0 0 6 45 55 61 55 52 58 58 58 74 84 94 97 100 90 97 100 100 100 100 94 77 23 3 19 6 26 39 58 19 0 0 0 0 0
0 0 0 0 0 0 0 0 0 0 0 0 0 0 0 6 13 13 16 19 39 48 58 74 94 87 81 77 61 65 74 94 90 87 84 45 16 0 0 0 0 0 0 0 0 0 0 0 0
0 0 0 0 0 0 0 0 0 0 0 0 0 0 0 0 0 0 0 0 0 19 26 55 61 65 55 45 32 32 45 65 71 65 61 48 23 0 0 0 0 0 0 0 0 0 0 0 0
0 0 0 0 0 0 0 0 0 0 0 0 0 0 0 0 0 0 0 0 0 0 0 6 55 45 32 29 19 23 16 29 19 35 52 45 29 3 0 0 0 0 0 0 0 0 0 0 0
0 0 0 0 0 0 0 0 0 0 0 0 0 0 0 0 0 0 0 0 0 0 0 0 3 23 19 16 19 19 10 6 6 19 29 32 19 0 0 0 0 0 0 0 0 0 0 0 0
0 0 0 0 0 0 0 0 0 0 0 0 0 0 0 0 0 0 0 0 0 0 0 0 0 0 3 13 16 19 13 6 3 3 3 6 19 3 0 0 0 0 0 0 0 0 0 0 0
0 0 0 0 0 0 0 0 0 0 0 0 0 0 0 0 0 0 0 0 0 0 0 0 0 0 0 0 6 10 16 6 3 3 3 0 6 6 3 0 0 0 0 0 0 0 0 0 0
0 0 0 0 0 0 0 0 0 0 0 0 0 0 0 0 0 0 0 0 0 0 0 0 0 0 0 0 0 6 10 10 3 3 0 0 0 3 3 0 0 0 0 0 0 0 0 0 0
0 0 0 0 0 0 0 0 0 0 0 0 0 0 0 0 0 0 0 0 0 0 0 0 0 0 0 0 0 0 6 16 6 3 6 0 0 0 3 0 0 0 0 0 0 0 0 0 0
0 0 0 0 0 0 0 0 0 0 0 0 0 0 0 0 0 0 0 0 0 0 0 0 0 0 0 0 0 0 0 0 3 10 6 3 0 0 0 0 0 0 0 0 0 0 0 0 0
0 0 0 0 0 0 0 0 0 0 0 0 0 0 0 0 0 0 0 0 0 0 0 0 0 0 0 0 0 0 0 0 0 0 0 6 6 0 0 0 0 0 0 0 0 0 0 0 0
0 0 0 0 0 0 0 0 0 0 0 0 0 0 0 0 0 0 0 0 0 0 0 0 0 0 0 0 0 0 0 0 0 0 0 0 0 3 0 0 0 0 0 0 0 0 0 0 0
0 0 0 0 0 0 0 0 0 0 0 0 0 0 0 0 0 0 0 0 0 0 0 0 0 0 0 0 0 0 0 0 0 0 0 0 0 0 0 0 0 0 0 0 0 0 0 0 0
0 0 0 0 0 0 0 0 0 0 0 0 0 0 0 0 0 0 0 0 0 0 0 0 0 0 0 0 0 0 0 0 0 0 0 0 0 0 0 0 0 0 0 0 0 0 0 0 0
0 0 0 0 0 0 0 0 0 0 0 0 0 0 0 0 0 0 0 0 0 0 0 0 0 0 0 0 0 0 0 0 0 0 0 0 0 0 0 0 0 0 0 0 0 0 0 0 0
0 0 0 0 0 0 0 0 0 0 0 0 0 0 0 0 0 0 0 0 0 0 0 0 0 0 0 0 0 0 0 0 0 0 0 0 0 0 0 0 0 0 0 0 0 0 0 0 0
0 0 0 0 0 0 0 0 0 0 0 0 0 0 0 0 0 0 0 0 0 0 0 0 0 0 0 0 0 0 0 0 0 0 0 0 0 0 0 0 0 0 0 0 0 0 0 0 0
0 0 0 0 0 0 0 0 0 0 0 0 0 0 0 0 0 0 0 0 0 0 0 0 0 0 0 0 0 0 0 0 0 0 0 0 0 0 0 0 0 0 0 0 0 0 0 0 0
0 0 0 0 0 0 0 0 0 0 0 0 0 0 0 0 0 0 0 0 0 0 0 0 0 0 0 0 0 0 0 0 0 0 0 0 0 0 0 0 0 0 0 0 0 0 0 0 0
0 0 0 0 0 0 0 0 0 0 0 0 0 0 0 0 0 0 0 0 0 0 0 0 0 0 0 0 0 0 0 0 0 0 0 0 0 0 0 0 0 0 0 0 0 0 0 0 0

GEFSSGP_con_cape1000_030.txt.gz
Probability
100 100 100 94 3 0 0 0 0 0 0 0 0 0 0 0 0 10 16 0 19 90 100 100 100 100 100 100 100 100 100 100 100 100 100 100 100 90 94 97 100 97 94 94 100 97 100 97 97
100 100 87 19 0 0 0 0 0 0 0 0 0 0 0 0 0 6 0 3 35 84 100 100 100 100 100 100 100 100 100 100 97 97 97 97 97 97 94 94 90 84 90 94 94 97 97 100 97
100 97 52 0 0 0 0 0 0 0 0 0 0 0 0 0 0 0 6 10 45 87 100 100 100 100 100 100 100 100 100 97 97 97 94 94 94 87 90 74 71 74 71 81 90 87 90 94 97
100 65 3 0 0 0 0 0 0 0 0 0 0 0 0 3 6 0 0 16 39 81 97 100 100 100 100 100 100 100 100 100 97 97 84 81 81 81 74 65 61 45 55 71 84 90 87 90 100
77 23 0 0 0 0 0 0 0 0 0 0 0 0 0 35 16 3 6 10 26 65 81 100 100 100 100 100 100 100 100 100 84 84 81 81 71 71 61 55 65 45 32 52 74 84 90 90 90
61 0 0 0 0 0 0 0 0 0 0 0 0 0 6 52 39 16 6 10 6 32 55 90 100 100 100 100 100 100 100 100 90 87 84 90 87 74 48 48 52 42 32 26 42 55 71 81 77
58 0 0 0 0 0 0 0 3 0 0 0 0 0 0 61 84 65 42 35 13 13 29 61 100 100 100 100 100 100 100 100 97 94 94 94 90 81 61 45 39 32 26 13 16 26 52 61 71
13 0 0 0 0 0 0 0 0 3 3 0 0 0 0 61 94 90 71 52 23 23 23 23 52 84 94 100 100 100 100 100 100 100 100 97 90 87 87 65 45 19 16 3 0 6 26 48 48
0 0 0 0 0 0 0 0 0 0 0 6 13 23 42 87 90 84 74 71 61 42 39 32 45 65 74 81 87 100 100 100 100 100 100 97 87 77 87 68 68 26 3 0 0 0 3 16 29
0 0 0 3 0 0 0 0 0 0 0 6 10 42 68 77 74 58 58 52 48 58 42 52 55 61 74 74 81 100 100 100 100 100 97 94 65 39 6 65 77 48 10 3 0 0 0 0 3
0 0 3 3 0 0 0 0 0 0 0 3 13 29 39 42 39 48 48 45 52 52 61 58 68 81 71 97 100 100 100 100 100 97 97 100 81 77 29 45 81 68 32 13 10 0 0 0 0
0 0 0 0 0 0 0 0 0 0 0 0 3 10 6 6 6 10 19 16 26 29 32 39 58 71 77 97 97 100 97 100 100 100 100 97 97 90 45 42 13 16 32 19 3 0 0 0 0
0 0 0 0 0 0 0 0 0 0 0 0 0 0 0 0 0 0 3 3 3 3 3 16 26 35 58 81 97 100 100 100 100 100 97 94 97 97 74 42 35 6 3 6 6 3 0 0 0
0 0 0 0 0 0 0 0 0 0 0 0 0 0 0 0 0 0 0 0 0 3 3 3 10 13 29 55 71 77 97 100 100 100 100 90 100 97 97 65 23 10 6 3 3 3 3 0 0
0 0 0 0 0 0 0 0 0 0 0 0 0 0 0 0 0 0 0 0 0 0 0 0 3 0 3 26 39 55 74 81 84 90 97 87 97 94 94 87 52 19 10 0 0 0 0 0 0
0 0 0 0 0 0 0 0 0 0 0 0 0 0 0 0 0 0 0 0 0 0 0 0 0 0 0 0 19 32 45 61 68 65 65 68 87 87 100 100 77 32 16 13 13 3 3 0 0
0 0 0 0 0 0 0 0 0 0 0 0 0 0 0 0 0 0 0 0 0 0 0 0 0 0 0 0 10 35 42 61 55 61 61 61 68 71 94 97 100 68 71 58 16 3 3 0 0
0 0 0 0 0 0 0 0 0 0 0 0 0 0 0 0 0 0 0 0 0 0 0 0 0 0 0 0 0 16 39 58 61 65 61 58 61 68 77 94 94 87 94 84 52 13 6 3 0
0 0 0 0 0 0 0 0 0 0 0 0 0 0 0 0 0 0 0 0 0 0 0 0 0 0 0 0 0 0 6 32 39 61 74 71 55 55 74 74 87 87 90 74 42 42 10 16 0
0 0 0 0 0 0 0 0 0 0 0 0 0 0 0 0 0 0 0 0 0 0 0 0 0 0 0 0 0 0 3 6 29 58 68 68 77 81 71 74 81 87 87 74 71 55 39 23 0
0 0 0 0 0 0 0 0 0 0 0 0 0 0 0 0 0 0 0 0 0 0 0 0 0 0 0 0 3 10 13 26 32 48 68 74 77 90 84 81 71 68 77 77 61 45 42 29 6
0 0 0 0 0 0 0 0 0 0 0 0 0 0 0 0 0 0 0 0 0 0 0 0 0 0 0 3 6 10 29 29 26 35 55 65 68 84 87 84 77 68 65 65 52 39 35 42 26
0 0 0 0 0 0 0 0 0 0 0 0 0 0 0 0 0 0 0 0 0 0 0 0 0 0 0 0 13 29 32 35 42 45 55 71 68 71 68 84 81 71 61 61 52 42 48 32 26
0 0 0 0 0 0 0 0 0 0 0 0 0 0 0 0 0 0 0 0 0 0 0 0 0 0 0 10 13 23 23 32 42 55 55 61 65 68 61 71 77 77 84 65 58 55 39 29 23
0 0 0 0 0 0 0 0 0 0 0 0 0 0 0 0 0 0 0 0 0 0 0 0 0 0 0 3 19 19 16 19 23 26 39 45 39 35 45 42 55 55 48 55 52 52 35 29 29
0 0 0 0 0 0 0 0 0 0 0 0 0 0 0 0 0 0 0 0 0 0 0 0 0 0 0 3 0 10 16 13 10 16 13 6 10 13 16 19 26 32 29 23 32 29 19 16 16
0 0 0 0 0 0 0 0 0 0 0 0 0 0 0 0 0 0 0 0 0 0 0 0 0 0 0 0 0 3 0 3 3 6 10 6 3 0 0 3 3 3 6 6 10 26 23 16 6
0 0 0 0 0 0 0 0 0 0 0 0 0 0 0 0 0 0 0 0 0 0 0 0 0 0 0 0 0 0 0 3 0 3 3 0 0 0 0 0 0 0 0 0 0 0 6 6 3
0 0 0 0 0 0 0 0 0 0 0 0 0 0 0 0 0 0 0 0 0 0 0 0 0 0 0 0 0 0 0 0 0 0 0 0 0 0 0 0 0 0 0 0 0 0 0 0 0
0 0 0 0 0 0 0 0 0 0 0 0 0 0 0 0 0 0 0 0 0 0 0 0 0 0 0 0 0 0 0 0 0 0 0 0 0 0 0 0 0 0 0 0 0 0 0 0 0

GEFSSGP_con_cape1000_036.txt.gz
Probability
100 100 100 100 100 65 0 0 0 0 0 0 0 0 0 3 42 42 68 90 94 97 100 100 100 100 100 100 100 100 100 100 100 100 100 94 94 90 87 87 84 74 77 81 87 94 97 90 94
100 100 100 97 94 0 0 0 0 0 0 0 0 0 0 0 0 0 48 97 97 97 97 100 100 100 100 100 100 97 100 97 97 97 97 90 87 81 71 74 81 81 77 81 84 90 90 90 90
100 100 100 94 3 0 0 0 0 0 0 0 0 0 0 0 0 16 55 81 90 97 97 100 100 100 100 100 100 100 100 97 97 94 94 87 84 71 74 71 74 68 68 71 84 87 84 84 87
100 100 97 52 0 0 0 0 0 0 0 0 0 0 0 0 10 13 32 55 84 97 100 100 100 100 100 100 100 100 100 97 97 97 87 84 81 71 61 58 58 48 52 68 74 74 81 77 71
100 100 71 0 0 0 0 0 0 0 0 0 0 0 0 3 3 6 23 42 81 94 100 100 100 100 100 100 100 100 97 97 97 90 74 68 71 65 55 52 48 29 32 42 55 74 77 74 71
100 68 6 0 0 0 0 3 3 0 0 0 0 0 3 3 3 3 16 26 39 87 100 100 100 100 100 100 100 100 100 100 94 90 81 77 74 68 58 52 45 35 19 23 29 48 55 58 61
100 68 10 0 6 3 0 6 13 19 23 26 10 10 16 19 19 6 0 6 23 42 94 100 100 100 100 100 100 100 100 100 100 94 87 90 87 81 68 55 35 32 13 13 10 23 42 45 55
100 74 0 0 16 0 3 10 29 48 48 58 48 32 19 35 35 23 13 6 6 10 32 94 100 100 100 100 100 100 100 100 100 100 97 97 97 94 94 65 55 32 16 3 3 6 26 42 48
26 23 6 13 55 23 13 19 42 52 48 39 42 39 52 61 45 29 42 29 29 19 16 26 48 74 90 97 100 100 100 100 100 100 100 100 97 90 94 87 87 55 29 6 3 6 19 29 48
29 71 23 65 61 48 23 13 39 26 16 13 13 16 26 26 35 39 42 42 39 35 32 26 26 45 55 68 94 100 100 100 100 100 100 100 77 81 90 94 100 81 42 26 10 6 19 19 0
23 77 42 29 35 32 23 3 3 10 3 6 10 10 6 16 16 16 16 23 23 13 19 19 26 26 39 58 84 90 97 97 97 90 87 77 68 61 61 65 97 81 45 13 3 3 0 0 0
13 23 10 13 10 26 6 0 0 3 0 0 3 3 3 3 3 3 3 6 6 6 3 6 6 13 23 39 48 81 90 90 90 84 74 68 58 39 16 32 45 52 35 6 0 0 0 0 0
6 3 3 3 6 3 0 0 0 0 0 0 0 0 0 0 3 0 0 0 0 3 3 3 3 3 3 16 35 35 55 74 74 71 74 71 61 48 29 19 23 42 39 26 16 3 0 0 0
0 0 0 0 3 0 0 0 0 0 0 0 0 0 0 0 0 0 0 0 0 0 0 0 0 0 0 0 10 19 26 42 58 58 68 74 71 52 52 13 23 23 26 16 6 0 0 0 0
0 0 0 3 0 0 0 0 0 0 0 0 0 0 0 0 0 0 0 0 0 0 0 0 0 0 0 0 10 10 13 19 32 39 45 48 52 55 45 42 16 26 13 3 0 0 0 0 0
0 0 0 0 0 0 0 0 0 0 0 0 0 0 0 0 0 0 0 0 0 0 0 0 0 0 0 0 0 10 16 19 35 39 42 39 39 42 52 61 42 19 10 0 0 3 0 0 0
0 0 0 0 0 0 0 0 0 0 0 0 0 0 0 0 0 0 0 0 0 0 0 0 0 0 0 0 0 10 6 19 29 39 45 39 39 42 52 61 48 35 39 19 10 0 0 0 0
0 0 0 0 0 0 0 0 0 0 0 0 0 0 0 0 0 0 0 0 0 0 0 0 0 0 0 0 0 6 10 16 32 32 52 45 42 42 42 45 35 35 39 26 13 6 3 0 0
0 0 0 0 0 0 0 0 0 0 0 0 0 0 0 0 0 0 0 0 0 0 0 0 0 0 0 0 0 0 0 13 26 42 39 45 48 48 39 48 48 35 42 23 13 6 0 0 0
0 0 0 0 0 0 0 0 0 0 0 0 0 0 0 0 0 0 0 0 0 0 0 0 0 0 0 0 0 0 0 3 13 35 29 42 39 52 52 52 39 35 35 29 10 3 0 0 0
0 0 0 0 0 0 0 0 0 0 0 0 0 0 0 0 0 0 0 0 0 0 0 0 0 0 0 0 0 0 0 6 10 16 39 52 58 61 45 42 35 32 29 13 6 3 0 0 0
0 0 0 0 0 0 0 0 0 0 0 0 0 0 0 0 0 0 0 0 0 0 0 0 0 0 0 0 0 0 0 0 0 6 23 48 48 52 65 61 39 32 39 32 29 16 10 0 0
0 0 0 0 0 0 0 0 0 0 0 0 0 0 0 0 0 0 0 0 0 0 0 0 0 0 0 0 0 0 0 0 0 10 16 29 45 52 65 61 48 52 39 42 32 29 23 3 0
0 0 0 0 0 0 0 0 0 0 0 0 0 0 0 0 0 0 0 0 0 0 0 0 0 0 0 0 0 0 0 0 3 10 16 26 35 42 48 55 55 55 42 32 26 19 16 10 0
0 0 0 0 0 0 0 0 0 0 0 0 0 0 0 0 0 0 0 0 0 0 0 0 0 0 0 0 0 0 0 0 0 0 10 10 19 32 45 45 55 52 42 26 16 13 10 6 6
0 0 0 0 0 0 0 0 0 0 0 0 0 0 0 0 0 0 0 0 0 0 0 0 0 0 0 0 0 0 0 0 0 0 0 3 6 10 23 26 29 23 29 16 10 16 10 6 3
0 0 0 0 0 0 0 0 0 0 0 0 0 0 0 0 0 0 0 0 0 0 0 0 0 0 0 0 0 0 0 0 0 0 0 0 0 0 3 3 10 6 3 10 10 6 6 0 0
0 0 0 0 0 0 0 0 0 0 0 0 0 0 0 0 0 0 0 0 0 0 0 0 0 0 0 0 0 0 0 0 0 0 0 0 0 0 0 0 0 0 0 0 0 0 0 0 0
0 0 0 0 0 0 0 0 0 0 0 0 0 0 0 0 0 0 0 0 0 0 0 0 0 0 0 0 0 0 0 0 0 0 0 0 0 0 0 0 0 0 0 0 0 0 0 0 0
0 0 0 0 0 0 0 0 0 0 0 0 0 0 0 0 0 0 0 0 0 0 0 0 0 0 0 0 0 0 0 0 0 0 0 0 0 0 0 0 0 0 0 0 0 0 0 0 0

GEFSSGP_con_cape1000_042.txt.gz
Probability
100 100 100 97 26 0 0 0 0 0 0 0 0 0 0 0 0 0 3 52 42 68 100 100 100 100 100 100 100 100 100 100 100 100 100 100 97 94 90 87 90 84 90 90 94 97 100 97 97
94 100 97 55 0 0 0 0 0 0 0 0 0 0 0 6 19 42 58 65 48 90 100 100 100 100 100 100 100 100 100 100 100 100 97 97 94 94 84 84 84 77 81 84 94 90 97 97 94
90 97 84 10 0 0 0 0 0 0 0 0 0 0 0 0 19 55 61 65 65 87 100 100 100 100 100 100 100 100 97 97 97 97 97 97 94 77 71 71 71 74 71 77 90 90 94 97 90
100 81 19 0 0 0 0 0 0 0 0 0 0 0 0 3 16 65 74 74 74 87 100 100 100 100 100 100 100 100 100 97 97 97 97 90 87 77 74 71 61 52 58 71 84 84 84 77 84
74 29 0 0 0 0 0 0 0 0 0 0 0 0 0 3 35 71 74 77 77 97 100 100 100 100 100 100 100 100 100 100 97 97 90 84 81 77 68 58 52 39 35 61 77 87 84 81 81
29 3 0 0 0 0 0 0 6 3 0 0 0 0 0 0 16 45 68 84 90 100 100 100 100 100 100 100 100 100 100 100 100 100 94 84 77 77 68 61 52 45 35 35 52 74 77 81 77
23 0 0 0 0 0 0 3 6 3 0 0 0 0 0 0 10 19 45 58 71 81 84 94 100 100 100 100 100 100 100 100 100 100 100 97 90 84 81 74 55 48 42 32 35 55 68 77 81
6 0 0 0 0 0 0 6 10 3 3 0 0 0 0 0 0 6 6 13 26 26 45 58 71 74 90 97 100 100 100 100 100 100 100 100 100 100 90 87 74 58 48 26 29 42 48 74 81
0 0 0 0 0 0 0 0 0 0 0 0 0 0 0 0 0 0 0 0 3 6 10 16 23 29 39 71 94 100 100 100 100 100 100 100 94 94 90 94 90 74 71 52 35 35 39 68 77
0 0 0 0 0 0 3 0 0 0 0 0 0 0 0 0 0 0 0 0 0 0 0 0 10 10 16 32 52 65 81 87 90 100 100 100 90 77 84 84 100 97 94 81 61 48 48 45 10
0 0 0 0 0 3 0 0 0 0 0 0 0 0 0 0 0 0 0 0 0 0 0 0 0 0 3 3 6 39 52 61 71 71 77 77 68 45 58 32 81 100 94 68 52 39 13 0 0
0 0 0 3 0 0 0 0 0 0 0 0 0 0 0 0 0 0 0 0 0 0 0 0 0 0 0 0 0 6 13 23 42 65 65 48 45 29 16 6 10 42 61 29 3 0 0 0 0
0 0 0 0 0 0 0 0 0 0 0 0 0 0 0 0 0 0 0 0 0 0 0 0 0 0 0 0 0 0 6 13 10 13 19 29 26 23 10 3 0 26 13 0 0 0 0 0 0
0 0 0 0 0 0 0 0 0 0 0 0 0 0 0 0 0 0 0 0 0 0 0 0 0 0 0 0 0 0 0 0 3 3 6 16 19 10 6 0 0 3 3 0 0 0 0 0 0
0 0 0 0 0 0 0 0 0 0 0 0 0 0 0 0 0 0 0 0 0 0 0 0 0 0 0 0 0 0 0 0 0 0 3 6 6 6 3 3 0 3 3 0 0 0 0 0 0
0 0 0 0 0 0 0 0 0 0 0 0 0 0 0 0 0 0 0 0 0 0 0 0 0 0 0 0 0 0 0 0 0 0 0 0 3 6 3 3 0 0 3 6 0 0 0 0 0
0 0 0 0 0 0 0 0 0 0 0 0 0 0 0 0 0 0 0 0 0 0 0 0 0 0 0 0 0 0 0 0 0 0 3 6 3 6 10 6 0 0 0 0 0 0 0 0 0
0 0 0 0 0 0 0 0 0 0 0 0 0 0 0 0 0 0 0 0 0 0 0 0 0 0 0 0 0 0 0 0 0 0 3 13 10 3 3 3 6 0 0 0 0 0 0 0 0
0 0 0 0 0 0 0 0 0 0 0 0 0 0 0 0 0 0 0 0 0 0 0 0 0 0 0 0 0 0 0 0 0 0 0 0 6 6 3 3 3 0 0 0 0 0 0 0 0
0 0 0 0 0 0 0 0 0 0 0 0 0 0 0 0 0 0 0 0 0 0 0 0 0 0 0 0 0 0 0 0 0 0 0 0 0 3 6 3 3 0 0 0 0 0 0 0 0
0 0 0 0 0 0 0 0 0 0 0 0 0 0 0 0 0 0 0 0 0 0 0 0 0 0 0 0 0 0 0 0 0 0 0 0 0 0 3 6 6 0 0 0 0 0 0 0 0
0 0 0 0 0 0 0 0 0 0 0 0 0 0 0 0 0 0 0 0 0 0 0 0 0 0 0 0 0 0 0 0 0 0 0 0 0 0 0 3 6 3 0 0 0 0 0 0 0
0 0 0 0 0 0 0 0 0 0 0 0 0 0 0 0 0 0 0 0 0 0 0 0 0 0 0 0 0 0 0 0 0 0 0 0 0 0 0 0 0 10 3 3 3 0 0 0 0
0 0 0 0 0 0 0 0 0 0 0 0 0 0 0 0 0 0 0 0 0 0 0 0 0 0 0 0 0 0 0 0 0 0 0 0 0 0 0 0 3 3 6 3 3 6 0 0 0
0 0 0 0 0 0 0 0 0 0 0 0 0 0 0 0 0 0 0 0 0 0 0 0 0 0 0 0 0 0 0 0 0 0 0 0 0 0 0 3 3 6 0 0 0 3 3 0 0
0 0 0 0 0 0 0 0 0 0 0 0 0 0 0 0 0 0 0 0 0 0 0 0 0 0 0 0 0 0 0 0 0 0 0 0 0 0 0 0 0 3 3 0 0 3 3 0 0
0 0 0 0 0 0 0 0 0 0 0 0 0 0 0 0 0 0 0 0 0 0 0 0 0 0 0 0 0 0 0 0 0 0 0 0 0 0 0 0 0 0 3 3 3 0 3 3 0
0 0 0 0 0 0 0 0 0 0 0 0 0 0 0 0 0 0 0 0 0 0 0 0 0 0 0 0 0 0 0 0 0 0 0 0 0 0 0 0 0 0 0 0 0 0 0 0 0
0 0 0 0 0 0 0 0 0 0 0 0 0 0 0 0 0 0 0 0 0 0 0 0 0 0 0 0 0 0 0 0 0 0 0 0 0 0 0 0 0 0 0 0 0 0 0 0 0
0 0 0 0 0 0 0 0 0 0 0 0 0 0 0 0 0 0 0 0 0 0 0 0 0 0 0 0 0 0 0 0 0 0 0 0 0 0 0 0 0 0 0 0 0 0 0 0 0

GEFSSGP_con_cape1000_048.txt.gz
Probability
97 97 100 71 0 0 0 0 0 0 0 0 0 0 0 0 0 0 0 3 13 29 90 100 100 100 100 100 100 100 100 100 100 97 94 97 94 94 90 90 87 90 87 94 94 100 97 94 90
94 90 84 6 0 0 0 0 0 0 0 0 0 0 0 10 16 13 29 35 26 65 100 100 100 100 100 100 100 100 100 100 100 100 100 97 94 94 87 77 81 90 90 94 94 97 100 94 94
84 74 19 0 0 0 0 0 0 0 0 0 0 0 0 0 23 29 35 45 32 81 100 100 100 100 100 100 100 100 100 100 100 100 97 97 90 87 74 61 71 74 87 84 90 97 94 94 90
84 23 0 0 0 0 0 0 0 0 0 0 0 0 0 3 10 23 55 39 52 84 100 100 100 100 100 100 100 100 100 97 97 97 97 97 90 74 61 55 61 65 74 74 81 94 87 90 90
35 0 0 0 0 0 0 0 0 0 0 0 0 0 0 10 13 32 48 45 35 71 97 100 100 100 100 100 100 100 100 100 97 97 97 97 90 84 65 68 65 48 48 58 74 90 90 81 84
3 0 0 0 0 0 0 0 3 0 0 0 0 0 3 6 6 19 32 32 26 42 61 68 87 100 100 100 100 100 100 100 100 100 100 100 94 87 84 71 65 55 48 45 61 74 90 90 90
0 0 0 0 0 0 0 0 0 0 0 0 0 0 0 3 3 6 13 6 13 19 23 39 48 58 74 90 100 100 100 100 100 100 100 100 97 97 87 81 77 65 58 45 45 55 68 81 81
0 0 0 0 0 0 0 0 0 0 0 0 0 0 0 0 0 0 0 0 0 3 0 3 10 13 23 29 58 87 94 100 100 100 97 97 97 100 100 97 90 74 65 58 45 48 55 65 77
0 0 0 0 0 0 0 0 0 0 0 0 0 0 0 0 0 0 0 0 0 0 0 3 3 3 6 6 16 35 58 71 90 97 94 97 97 97 97 100 100 97 87 74 61 42 48 52 68
0 0 0 0 0 0 0 0 0 0 0 0 0 0 0 0 0 0 0 0 0 0 0 0 0 0 0 3 3 3 10 16 26 48 71 84 87 84 90 90 100 100 100 97 90 81 48 39 6
0 0 0 0 0 0 0 0 0 0 0 0 0 0 0 0 0 0 0 0 0 0 0 0 0 0 0 0 0 0 3 3 6 13 26 35 55 58 74 61 61 77 90 87 87 84 42 3 0
0 0 0 0 0 0 0 0 0 0 0 0 0 0 0 0 0 0 0 0 0 0 0 0 0 0 0 0 0 0 0 0 3 10 13 10 19 23 26 32 29 26 32 32 45 26 10 0 0
0 0 0 0 0 0 0 0 0 0 0 0 0 0 0 0 0 0 0 0 0 0 0 0 0 0 0 0 0 0 0 0 3 3 6 6 13 23 23 16 16 13 3 3 6 3 0 0 0
0 0 0 0 0 0 0 0 0 0 0 0 0 0 0 0 0 0 0 0 0 0 0 0 0 0 0 0 0 0 0 0 0 0 3 3 6 10 10 16 10 6 0 3 3 6 0 0 0
0 0 0 0 0 0 0 0 0 0 0 0 0 0 0 0 0 0 0 0 0 0 0 0 0 0 0 0 0 0 0 0 0 0 0 0 3 3 10 3 10 6 0 0 0 3 0 0 0
0 0 0 0 0 0 0 0 0 0 0 0 0 0 0 0 0 0 0 0 0 0 0 0 0 0 0 0 0 0 0 0 0 0 0 0 0 0 0 6 3 3 0 0 0 0 0 0 0
0 0 0 0 0 0 0 0 0 0 0 0 0 0 0 0 0 0 0 0 0 0 0 0 0 0 0 0 0 0 0 0 0 0 0 0 0 0 0 0 3 3 3 0 0 0 0 0 0
0 0 0 0 0 0 0 0 0 0 0 0 0 0 0 0 0 0 0 0 0 0 0 0 0 0 0 0 0 0 0 0 0 0 0 0 0 0 0 0 0 3 0 0 0 0 0 0 0
0 0 0 0 0 0 0 0 0 0 0 0 0 0 0 0 0 0 0 0 0 0 0 0 0 0 0 0 0 0 0 0 0 0 0 0 0 0 0 0 3 0 0 0 0 0 0 0 0
0 0 0 0 0 0 0 0 0 0 0 0 0 0 0 0 0 0 0 0 0 0 0 0 0 0 0 0 0 0 0 0 0 0 0 0 0 0 0 0 0 3 0 0 0 0 0 0 0
0 0 0 0 0 0 0 0 0 0 0 0 0 0 0 0 0 0 0 0 0 0 0 0 0 0 0 0 0 0 0 0 0 0 0 0 0 0 0 0 0 0 0 0 0 0 0 0 0
0 0 0 0 0 0 0 0 0 0 0 0 0 0 0 0 0 0 0 0 0 0 0 0 0 0 0 0 0 0 0 0 0 0 0 0 0 0 0 0 0 0 0 3 0 0 0 0 0
0 0 0 0 0 0 0 0 0 0 0 0 0 0 0 0 0 0 0 0 0 0 0 0 0 0 0 0 0 0 0 0 0 0 0 0 0 0 0 0 0 0 0 3 3 0 0 0 0
0 0 0 0 0 0 0 0 0 0 0 0 0 0 0 0 0 0 0 0 0 0 0 0 0 0 0 0 0 0 0 0 0 0 0 0 0 0 0 0 0 0 0 0 3 0 0 0 0
0 0 0 0 0 0 0 0 0 0 0 0 0 0 0 0 0 0 0 0 0 0 0 0 0 0 0 0 0 0 0 0 0 0 0 0 0 0 0 0 0 0 0 0 0 0 0 0 0
0 0 0 0 0 0 0 0 0 0 0 0 0 0 0 0 0 0 0 0 0 0 0 0 0 0 0 0 0 0 0 0 0 0 0 0 0 0 0 0 0 0 0 3 0 0 0 0 0
0 0 0 0 0 0 0 0 0 0 0 0 0 0 0 0 0 0 0 0 0 0 0 0 0 0 0 0 0 0 0 0 0 0 0 0 0 0 0 0 0 0 0 0 3 3 0 0 0
0 0 0 0 0 0 0 0 0 0 0 0 0 0 0 0 0 0 0 0 0 0 0 0 0 0 0 0 0 0 0 0 0 0 0 0 0 0 0 0 0 0 0 0 0 0 0 3 0
0 0 0 0 0 0 0 0 0 0 0 0 0 0 0 0 0 0 0 0 0 0 0 0 0 0 0 0 0 0 0 0 0 0 0 0 0 0 0 0 0 0 0 0 0 0 0 0 0
0 0 0 0 0 0 0 0 0 0 0 0 0 0 0 0 0 0 0 0 0 0 0 0 0 0 0 0 0 0 0 0 0 0 0 0 0 0 0 0 0 0 0 0 0 0 0 0 0

GEFSSGP_con_cape1000_054.txt.gz
Probability
100 100 97 100 58 0 0 0 0 0 0 0 0 0 0 0 0 0 45 23 6 3 35 84 100 100 94 94 97 100 100 100 97 94 94 94 90 90 84 84 87 87 87 87 90 94 94 94 90
100 97 94 68 10 0 0 0 0 0 0 0 0 0 0 3 0 3 26 29 26 13 26 52 100 100 100 100 100 97 97 100 100 100 94 97 97 90 87 74 81 81 84 81 87 87 84 87 84
90 81 84 29 0 0 0 0 0 0 0 0 0 0 3 3 3 26 55 45 16 10 32 77 97 100 100 100 100 100 100 100 100 100 100 94 94 84 77 61 65 65 77 84 84 90 87 87 81
87 87 39 0 0 0 0 0 0 0 0 0 0 0 6 10 26 39 45 32 16 16 39 74 90 90 94 97 97 100 100 100 100 100 100 100 97 84 71 65 55 61 68 71 77 90 87 84 81
74 55 0 0 0 0 0 0 0 0 0 0 0 0 3 13 19 32 48 29 26 26 26 45 77 84 94 94 94 97 100 100 100 100 100 100 97 94 90 65 55 65 58 58 65 81 81 74 71
84 13 0 0 0 0 0 3 0 0 0 0 0 0 3 10 23 26 35 32 19 13 16 13 26 32 45 65 77 90 94 100 100 100 100 100 100 97 94 87 68 65 68 48 48 58 74 77 74
84 16 0 0 0 0 3 3 0 0 0 0 0 3 10 3 13 26 13 10 6 6 3 0 0 3 19 23 35 48 58 68 71 84 94 94 94 94 97 97 94 74 71 65 48 48 52 55 65
87 6 0 0 0 0 10 3 0 0 0 0 0 0 3 3 6 6 3 0 0 0 0 0 0 0 6 13 10 19 32 32 48 58 81 81 77 74 87 94 100 97 81 71 55 42 45 45 55
48 0 0 0 0 3 10 3 0 0 0 0 0 3 3 0 0 0 0 3 3 0 3 3 3 0 0 0 3 6 10 16 13 23 48 65 71 61 74 74 84 97 97 94 84 58 42 42 48
61 0 0 13 6 19 10 3 0 0 0 0 0 0 0 0 0 0 0 0 0 0 0 3 3 3 0 0 0 16 6 10 16 19 39 48 58 55 52 55 74 81 90 94 87 87 58 35 35
55 29 39 19 6 10 3 0 0 0 0 0 0 0 0 0 0 0 0 0 0 0 0 0 0 0 3 6 10 10 10 10 10 16 23 29 45 65 58 68 71 81 81 90 84 87 87 35 13
55 42 19 16 3 6 3 0 0 0 0 0 0 0 0 0 0 0 0 0 0 0 0 0 0 0 0 3 3 10 10 10 10 16 19 19 39 48 52 65 65 68 84 90 84 94 65 35 10
61 29 3 3 3 0 0 0 0 0 0 0 0 0 0 0 0 0 0 0 0 0 0 0 0 0 0 0 0 0 0 3 3 10 13 19 23 29 45 42 65 71 68 77 81 65 42 48 13
32 13 6 0 0 0 0 0 0 0 0 0 0 0 0 0 0 0 0 0 0 0 0 0 0 0 0 0 0 0 0 0 3 3 3 6 19 19 32 42 61 61 71 74 77 71 52 42 35
10 6 3 0 0 0 0 0 0 0 0 0 0 0 0 0 0 0 0 0 0 0 0 0 0 0 0 0 0 0 0 0 0 0 0 0 3 13 26 32 52 48 48 45 65 48 55 45 35
13 0 0 0 0 0 0 0 0 0 0 0 0 0 0 0 0 0 0 0 0 0 0 0 0 0 0 0 0 0 0 0 0 0 0 0 0 0 10 29 35 48 58 58 55 58 68 52 45
0 0 0 0 0 0 0 0 0 0 0 0 0 0 0 0 0 0 0 0 0 0 0 0 0 0 0 0 0 0 0 0 0 0 0 0 0 3 3 19 23 29 55 55 48 45 58 58 55
0 0 0 0 0 0 0 0 0 0 0 0 0 0 0 0 0 0 0 0 0 0 0 0 0 0 0 0 0 0 0 0 0 0 0 0 0 0 3 6 6 10 48 65 61 65 68 71 65
0 0 0 0 0 0 0 0 0 0 0 0 0 0 0 0 0 0 0 0 0 0 0 0 0 0 0 0 0 0 0 0 0 0 0 0 0 0 0 3 3 13 26 35 45 61 52 68 58
0 0 0 0 0 0 0 0 0 0 0 0 0 0 0 0 0 0 0 0 0 0 0 0 0 0 0 0 0 0 0 0 0 0 0 0 0 3 0 3 3 6 32 23 23 48 58 48 52
0 0 0 0 0 0 0 0 0 0 0 0 0 0 0 0 0 0 0 0 0 0 0 0 0 0 0 0 0 0 0 0 0 0 3 0 3 0 0 3 3 3 6 19 29 32 42 52 52
0 0 0 0 0 0 0 0 0 0 0 0 0 0 0 0 0 0 0 0 0 0 0 0 0 0 0 0 0 0 0 0 0 0 3 3 3 3 0 0 3 0 0 3 3 10 32 42 45
0 0 0 0 0 0 0 0 0 0 0 0 0 0 0 0 0 0 0 0 0 0 0 0 0 0 0 0 0 0 0 0 0 0 0 0 3 0 0 0 0 3 3 3 3 3 13 26 39
0 0 0 0 0 0 0 0 0 0 0 0 0 0 0 0 0 0 0 0 0 0 0 0 0 0 0 0 0 0 0 0 0 0 0 0 0 0 0 0 0 3 0 3 3 6 13 16 23
0 0 0 0 0 0 0 0 0 0 0 0 0 0 0 0 0 0 0 0 0 0 0 0 0 0 0 0 0 0 0 0 0 0 0 0 0 0 0 0 0 0 0 0 6 6 10 10 16
0 0 0 0 0 0 0 0 0 0 0 0 0 0 0 0 0 0 0 0 0 0 0 0 0 0 0 0 0 0 0 0 0 0 0 0 0 0 0 0 0 0 0 0 6 6 6 6 3
0 0 0 0 0 0 0 0 0 0 0 0 0 0 0 0 0 0 0 0 0 0 0 0 0 0 0 0 0 0 0 0 0 0 0 0 0 0 0 0 0 0 0 0 0 6 6 6 10
0 0 0 0 0 0 0 0 0 0 0 0 0 0 0 0 0 0 0 0 0 0 0 0 0 0 0 0 0 0 0 0 0 0 0 0 0 0 0 0 0 0 0 0 0 0 3 3 6
0 0 0 0 0 0 0 0 0 0 0 0 0 0 0 0 0 0 0 0 0 0 0 0 0 0 0 0 0 0 0 0 0 0 0 0 0 0 0 0 0 0 0 0 0 0 0 3 6
0 0 0 0 0 0 0 0 0 0 0 0 0 0 0 0 0 0 0 0 0 0 0 0 0 0 0 0 0 0 0 0 0 0 0 0 0 0 0 0 0 0 0 0 0 0 0 0 3